LOG53MA EGPA-EGPH

Flight info

Callsign LOG53MA
Flight time 0h 57m
Altitude 21000
Route KOKAL DCT WIK DCT ADN/N0291F220 P600 PTH
Aircraft AT46/M-SDFGIRY/S

Departure

Time 2026-04-25 07:14
Airport Kirkwall Airport (EGPA)

Arrival

Time 2026-04-25 08:11
Airport Edinburgh Airport (EGPH)
Time Latitude Longitude Altitude Speed Heading
2026-04-25 07:14 58.82560 -2.86045 5296 ft 196 kts 201°
2026-04-25 07:14 58.81255 -2.86823 5798 ft 196 kts 203°
2026-04-25 07:14 58.79960 -2.87656 6296 ft 196 kts 205°
2026-04-25 07:14 58.78671 -2.88524 6777 ft 196 kts 206°
2026-04-25 07:15 58.77380 -2.89397 7236 ft 197 kts 206°
2026-04-25 07:15 58.76082 -2.90264 7685 ft 198 kts 206°
2026-04-25 07:15 58.74774 -2.91133 8110 ft 199 kts 206°
2026-04-25 07:15 58.73458 -2.92002 8531 ft 201 kts 206°
2026-04-25 07:16 58.72134 -2.92873 8955 ft 202 kts 207°
2026-04-25 07:16 58.70800 -2.93755 9371 ft 203 kts 207°
2026-04-25 07:16 58.69457 -2.94642 9780 ft 205 kts 207°
2026-04-25 07:16 58.68106 -2.95529 10181 ft 206 kts 207°
2026-04-25 07:17 58.66744 -2.96424 10540 ft 207 kts 207°
2026-04-25 07:17 58.65375 -2.97325 10900 ft 209 kts 207°
2026-04-25 07:17 58.63997 -2.98228 11259 ft 210 kts 207°
2026-04-25 07:17 58.62611 -2.99139 11610 ft 211 kts 207°
2026-04-25 07:18 58.61215 -3.00051 11958 ft 213 kts 207°
2026-04-25 07:18 58.59829 -3.00958 12298 ft 214 kts 207°
2026-04-25 07:18 58.58417 -3.01880 12643 ft 215 kts 207°
2026-04-25 07:18 58.56993 -3.02811 12983 ft 217 kts 207°
2026-04-25 07:19 58.55559 -3.03741 13318 ft 218 kts 207°
2026-04-25 07:19 58.54114 -3.04680 13654 ft 219 kts 207°
2026-04-25 07:19 58.52665 -3.05621 13996 ft 221 kts 207°
2026-04-25 07:19 58.51208 -3.06570 14287 ft 222 kts 207°
2026-04-25 07:20 58.49743 -3.07524 14571 ft 223 kts 207°
2026-04-25 07:20 58.48273 -3.08480 14848 ft 224 kts 206°
2026-04-25 07:20 58.46797 -3.09435 15129 ft 225 kts 204°
2026-04-25 07:20 58.45204 -3.09603 15373 ft 237 kts 173°
2026-04-25 07:21 58.43607 -3.08683 15608 ft 242 kts 162°
2026-04-25 07:21 58.42050 -3.07436 15868 ft 243 kts 159°
2026-04-25 07:21 58.40500 -3.06123 16145 ft 244 kts 159°
2026-04-25 07:21 58.38945 -3.04834 16418 ft 244 kts 160°
2026-04-25 07:22 58.37368 -3.03615 16680 ft 245 kts 161°
2026-04-25 07:22 58.35782 -3.02443 16938 ft 245 kts 161°
2026-04-25 07:22 58.34193 -3.01262 17191 ft 245 kts 161°
2026-04-25 07:22 58.32600 -3.00076 17435 ft 246 kts 161°
2026-04-25 07:23 58.31005 -2.98890 17665 ft 246 kts 161°
2026-04-25 07:23 58.29410 -2.97696 17910 ft 247 kts 161°
2026-04-25 07:23 58.27805 -2.96502 18109 ft 250 kts 161°
2026-04-25 07:23 58.26160 -2.95281 18197 ft 258 kts 161°
2026-04-25 07:24 58.24465 -2.94024 18218 ft 266 kts 161°
2026-04-25 07:24 58.22720 -2.92731 18233 ft 273 kts 161°
2026-04-25 07:24 58.20935 -2.91409 18240 ft 279 kts 160°
2026-04-25 07:24 58.19110 -2.90059 18242 ft 283 kts 161°
2026-04-25 07:25 58.17287 -2.88712 18243 ft 287 kts 161°
2026-04-25 07:25 58.15392 -2.87314 18241 ft 290 kts 161°
2026-04-25 07:25 58.13530 -2.85941 18246 ft 292 kts 161°
2026-04-25 07:25 58.11636 -2.84547 18248 ft 294 kts 161°
2026-04-25 07:26 58.09716 -2.83134 18249 ft 298 kts 161°
2026-04-25 07:26 58.07766 -2.81702 18249 ft 301 kts 161°
2026-04-25 07:26 58.05808 -2.80266 18243 ft 303 kts 160°
2026-04-25 07:26 58.03833 -2.78820 18245 ft 305 kts 160°
2026-04-25 07:27 58.01849 -2.77367 18245 ft 307 kts 160°
2026-04-25 07:27 57.99858 -2.75914 18241 ft 308 kts 160°
2026-04-25 07:27 57.97858 -2.74456 18241 ft 309 kts 161°
2026-04-25 07:27 57.95854 -2.72995 18244 ft 309 kts 161°
2026-04-25 07:28 57.93845 -2.71531 18243 ft 310 kts 161°
2026-04-25 07:28 57.91833 -2.70067 18240 ft 310 kts 161°
2026-04-25 07:28 57.89818 -2.68603 18242 ft 310 kts 161°
2026-04-25 07:28 57.87802 -2.67141 18241 ft 311 kts 161°
2026-04-25 07:29 57.85784 -2.65679 18242 ft 311 kts 161°
2026-04-25 07:29 57.83765 -2.64218 18243 ft 311 kts 161°
2026-04-25 07:29 57.81740 -2.62755 18242 ft 311 kts 161°
2026-04-25 07:29 57.79724 -2.61301 18242 ft 311 kts 161°
2026-04-25 07:30 57.77699 -2.59840 18241 ft 311 kts 161°
2026-04-25 07:30 57.75682 -2.58388 18243 ft 311 kts 161°
2026-04-25 07:30 57.73656 -2.56930 18239 ft 311 kts 161°
2026-04-25 07:30 57.71638 -2.55480 18240 ft 311 kts 161°
2026-04-25 07:31 57.69615 -2.54028 18238 ft 311 kts 161°
2026-04-25 07:31 57.67591 -2.52576 18241 ft 312 kts 161°
2026-04-25 07:31 57.65566 -2.51127 18239 ft 312 kts 161°
2026-04-25 07:31 57.63541 -2.49678 18242 ft 312 kts 161°
2026-04-25 07:32 57.61512 -2.48229 18240 ft 312 kts 161°
2026-04-25 07:32 57.59483 -2.46782 18236 ft 312 kts 161°
2026-04-25 07:32 57.57481 -2.45356 18237 ft 312 kts 161°
2026-04-25 07:32 57.55451 -2.43912 18239 ft 312 kts 161°
2026-04-25 07:33 57.53420 -2.42468 18240 ft 313 kts 161°
2026-04-25 07:33 57.51387 -2.41026 18239 ft 313 kts 161°
2026-04-25 07:33 57.49354 -2.39586 18234 ft 313 kts 161°
2026-04-25 07:33 57.47319 -2.38144 18236 ft 313 kts 161°
2026-04-25 07:34 57.45284 -2.36702 18235 ft 313 kts 161°
2026-04-25 07:34 57.43247 -2.35269 18237 ft 313 kts 161°
2026-04-25 07:34 57.41211 -2.33833 18237 ft 313 kts 161°
2026-04-25 07:34 57.39174 -2.32393 18237 ft 313 kts 161°
2026-04-25 07:35 57.37135 -2.30964 18235 ft 313 kts 161°
2026-04-25 07:35 57.35761 -2.29998 18232 ft 313 kts 161°
2026-04-25 07:35 57.33724 -2.28565 18238 ft 313 kts 162°
2026-04-25 07:35 57.31641 -2.27756 18241 ft 303 kts 186°
2026-04-25 07:36 57.29628 -2.28644 18239 ft 296 kts 208°
2026-04-25 07:36 57.27883 -2.30485 18235 ft 292 kts 220°
2026-04-25 07:36 57.26257 -2.32723 18236 ft 291 kts 223°
2026-04-25 07:36 57.24652 -2.35017 18234 ft 291 kts 223°
2026-04-25 07:37 57.23024 -2.37254 18234 ft 292 kts 221°
2026-04-25 07:37 57.21360 -2.39412 18237 ft 292 kts 220°
2026-04-25 07:37 57.19694 -2.41560 18237 ft 292 kts 220°
2026-04-25 07:37 57.18030 -2.43709 18236 ft 292 kts 220°
2026-04-25 07:38 57.16374 -2.45864 18241 ft 292 kts 220°
2026-04-25 07:38 57.14709 -2.48012 18236 ft 292 kts 220°
2026-04-25 07:38 57.13043 -2.50159 18233 ft 292 kts 220°
2026-04-25 07:38 57.11378 -2.52305 18235 ft 292 kts 220°
2026-04-25 07:39 57.09712 -2.54452 18231 ft 292 kts 220°
2026-04-25 07:39 57.08055 -2.56588 18237 ft 291 kts 220°
2026-04-25 07:39 57.06392 -2.58728 18237 ft 291 kts 220°
2026-04-25 07:39 57.04731 -2.60861 18237 ft 291 kts 220°
2026-04-25 07:40 57.03069 -2.62994 18232 ft 291 kts 220°
2026-04-25 07:40 57.01408 -2.65125 18232 ft 291 kts 220°
2026-04-25 07:40 56.99748 -2.67255 18236 ft 291 kts 220°
2026-04-25 07:40 56.98087 -2.69384 18226 ft 291 kts 219°
2026-04-25 07:41 56.96420 -2.71507 18239 ft 291 kts 219°
2026-04-25 07:41 56.94751 -2.73611 18240 ft 291 kts 219°
2026-04-25 07:41 56.93075 -2.75704 18233 ft 291 kts 219°
2026-04-25 07:41 56.91400 -2.77794 18232 ft 291 kts 219°
2026-04-25 07:42 56.89726 -2.79884 18233 ft 291 kts 219°
2026-04-25 07:42 56.88062 -2.81993 18236 ft 291 kts 219°
2026-04-25 07:42 56.86397 -2.84104 18231 ft 291 kts 219°
2026-04-25 07:42 56.84733 -2.86216 18232 ft 291 kts 219°
2026-04-25 07:43 56.83074 -2.88316 18230 ft 291 kts 219°
2026-04-25 07:43 56.81409 -2.90423 18243 ft 290 kts 219°
2026-04-25 07:43 56.79752 -2.92516 18231 ft 290 kts 219°
2026-04-25 07:43 56.78111 -2.94585 18240 ft 290 kts 219°
2026-04-25 07:44 56.76451 -2.96682 18235 ft 290 kts 219°
2026-04-25 07:44 56.74791 -2.98769 18237 ft 291 kts 218°
2026-04-25 07:44 56.73126 -3.00859 18236 ft 291 kts 219°
2026-04-25 07:44 56.71459 -3.02948 18231 ft 291 kts 218°
2026-04-25 07:45 56.69785 -3.05042 18233 ft 291 kts 218°
2026-04-25 07:45 56.68117 -3.07125 18229 ft 291 kts 219°
2026-04-25 07:45 56.66454 -3.09218 18233 ft 291 kts 218°
2026-04-25 07:45 56.64786 -3.11301 18235 ft 291 kts 218°
2026-04-25 07:46 56.63123 -3.13381 18232 ft 291 kts 218°
2026-04-25 07:46 56.61451 -3.15461 18231 ft 291 kts 218°
2026-04-25 07:46 56.59784 -3.17536 18227 ft 290 kts 218°
2026-04-25 07:46 56.58119 -3.19618 18234 ft 291 kts 218°
2026-04-25 07:47 56.56452 -3.21693 18234 ft 291 kts 218°
2026-04-25 07:47 56.54782 -3.23761 18238 ft 291 kts 218°
2026-04-25 07:47 56.53113 -3.25831 18240 ft 291 kts 218°
2026-04-25 07:47 56.51448 -3.27894 18239 ft 291 kts 218°
2026-04-25 07:48 56.49777 -3.29962 18238 ft 291 kts 218°
2026-04-25 07:48 56.48107 -3.32028 18238 ft 291 kts 218°
2026-04-25 07:48 56.46437 -3.34089 18234 ft 291 kts 218°
2026-04-25 07:48 56.44789 -3.36121 18239 ft 290 kts 218°
2026-04-25 07:49 56.43137 -3.38218 18232 ft 290 kts 219°
2026-04-25 07:49 56.41502 -3.40355 18240 ft 290 kts 219°
2026-04-25 07:49 56.39864 -3.42485 18238 ft 290 kts 219°
2026-04-25 07:49 56.38223 -3.44609 18234 ft 290 kts 219°
2026-04-25 07:50 56.36582 -3.46728 18237 ft 290 kts 219°
2026-04-25 07:50 56.34942 -3.48847 18234 ft 290 kts 219°
2026-04-25 07:50 56.33300 -3.50966 18234 ft 290 kts 219°
2026-04-25 07:50 56.31661 -3.53082 18232 ft 290 kts 219°
2026-04-25 07:51 56.30016 -3.55202 18235 ft 290 kts 219°
2026-04-25 07:51 56.28374 -3.57318 18233 ft 290 kts 218°
2026-04-25 07:51 56.26730 -3.59431 18224 ft 290 kts 218°
2026-04-25 07:51 56.25090 -3.61534 18233 ft 290 kts 218°
2026-04-25 07:52 56.23448 -3.63640 18230 ft 290 kts 218°
2026-04-25 07:52 56.21808 -3.65744 18239 ft 290 kts 218°
2026-04-25 07:52 56.20167 -3.67846 18231 ft 289 kts 218°
2026-04-25 07:52 56.18721 -3.70275 18232 ft 284 kts 234°
2026-04-25 07:53 56.17567 -3.73155 17982 ft 281 kts 238°
2026-04-25 07:53 56.16484 -3.76038 17608 ft 275 kts 238°
2026-04-25 07:53 56.15398 -3.78770 17235 ft 270 kts 236°
2026-04-25 07:53 56.14279 -3.81409 16818 ft 258 kts 235°
2026-04-25 07:54 56.13214 -3.83885 16279 ft 244 kts 236°
2026-04-25 07:54 56.12004 -3.85873 15742 ft 237 kts 208°
2026-04-25 07:54 56.10390 -3.86293 15226 ft 236 kts 172°
2026-04-25 07:54 56.08824 -3.85577 14712 ft 231 kts 163°
2026-04-25 07:55 56.07335 -3.84549 14208 ft 226 kts 149°
2026-04-25 07:55 56.06309 -3.82512 13673 ft 222 kts 110°
2026-04-25 07:55 56.06180 -3.79851 13131 ft 213 kts 73°
2026-04-25 07:55 56.06622 -3.77354 12576 ft 210 kts 66°
2026-04-25 07:56 56.07139 -3.74909 12043 ft 210 kts 66°
2026-04-25 07:56 56.07655 -3.72455 11512 ft 210 kts 66°
2026-04-25 07:56 56.08201 -3.70052 11004 ft 204 kts 56°
2026-04-25 07:56 56.09236 -3.68461 10492 ft 195 kts 16°
2026-04-25 07:57 56.10537 -3.67925 9975 ft 193 kts
2026-04-25 07:57 56.11869 -3.67589 9414 ft 194 kts
2026-04-25 07:57 56.13216 -3.67388 8875 ft 194 kts
2026-04-25 07:57 56.14566 -3.67343 8338 ft 193 kts 355°
2026-04-25 07:58 56.15771 -3.68120 7820 ft 187 kts 315°
2026-04-25 07:58 56.16298 -3.70189 7306 ft 188 kts 272°
2026-04-25 07:58 56.15980 -3.72438 6785 ft 186 kts 250°
2026-04-25 07:58 56.15196 -3.74236 6257 ft 187 kts 215°
2026-04-25 07:59 56.14106 -3.75502 5720 ft 188 kts 217°
2026-04-25 07:59 56.13008 -3.76901 5192 ft 202 kts 218°
2026-04-25 07:59 56.11862 -3.78388 4963 ft 204 kts 218°
2026-04-25 07:59 56.10695 -3.79894 4728 ft 209 kts 218°
2026-04-25 08:00 56.09504 -3.81396 4575 ft 207 kts 212°
2026-04-25 08:00 56.08138 -3.82027 4556 ft 202 kts 187°
2026-04-25 08:00 56.06725 -3.82056 4528 ft 206 kts 179°
2026-04-25 08:00 56.05282 -3.81815 4497 ft 210 kts 175°
2026-04-25 08:01 56.03818 -3.81457 4479 ft 213 kts 174°
2026-04-25 08:01 56.02345 -3.81081 4450 ft 215 kts 174°
2026-04-25 08:01 56.00874 -3.80714 4427 ft 217 kts 174°
2026-04-25 08:01 55.99374 -3.80369 4408 ft 218 kts 175°
2026-04-25 08:02 55.97868 -3.80042 4373 ft 219 kts 175°
2026-04-25 08:02 55.96354 -3.79719 4344 ft 219 kts 175°
2026-04-25 08:02 55.94836 -3.79404 4315 ft 220 kts 175°
2026-04-25 08:02 55.93317 -3.79083 4273 ft 220 kts 175°
2026-04-25 08:03 55.91800 -3.78760 4247 ft 219 kts 175°
2026-04-25 08:03 55.90283 -3.78440 4220 ft 219 kts 175°
2026-04-25 08:03 55.88769 -3.78120 4186 ft 219 kts 175°
2026-04-25 08:03 55.87264 -3.77807 4159 ft 212 kts 175°
2026-04-25 08:04 55.85903 -3.77523 4131 ft 187 kts 175°
2026-04-25 08:04 55.84589 -3.77239 4101 ft 194 kts 175°
2026-04-25 08:04 55.83242 -3.76830 4076 ft 198 kts 169°
2026-04-25 08:04 55.81960 -3.76027 4044 ft 197 kts 144°
2026-04-25 08:05 55.81234 -3.74016 4020 ft 197 kts 100°
2026-04-25 08:05 55.81458 -3.71680 4005 ft 194 kts 56°
2026-04-25 08:05 55.82476 -3.70245 3989 ft 186 kts 18°
2026-04-25 08:05 55.83597 -3.69183 3971 ft 185 kts 44°
2026-04-25 08:06 55.84391 -3.67341 3889 ft 193 kts 51°
2026-04-25 08:06 55.85233 -3.65380 3693 ft 206 kts 51°
2026-04-25 08:06 55.86106 -3.63332 3418 ft 202 kts 52°
2026-04-25 08:06 55.86846 -3.61330 3156 ft 187 kts 60°
2026-04-25 08:07 55.87487 -3.59311 2901 ft 186 kts 59°
2026-04-25 08:07 55.88150 -3.57405 2650 ft 176 kts 58°
2026-04-25 08:07 55.88781 -3.55576 2416 ft 173 kts 59°
2026-04-25 08:07 55.89376 -3.53797 2193 ft 162 kts 60°
2026-04-25 08:08 55.89936 -3.52137 1980 ft 154 kts 60°
2026-04-25 08:08 55.90480 -3.50548 1772 ft 144 kts 60°
2026-04-25 08:08 55.90959 -3.49142 1576 ft 122 kts 60°
2026-04-25 08:08 55.91371 -3.47953 1424 ft 108 kts 61°
2026-04-25 08:09 55.91758 -3.46812 1264 ft 108 kts 61°
2026-04-25 08:09 55.92143 -3.45680 1122 ft 105 kts 61°
2026-04-25 08:09 55.92531 -3.44593 939 ft 103 kts 60°
2026-04-25 08:09 55.92876 -3.43532 825 ft 98 kts 62°
2026-04-25 08:10 55.93216 -3.42458 697 ft 97 kts 62°
2026-04-25 08:10 55.93557 -3.41434 543 ft 97 kts 60°
2026-04-25 08:10 55.93925 -3.40447 413 ft 93 kts 60°
2026-04-25 08:10 55.94251 -3.39461 254 ft 92 kts 62°
2026-04-25 08:11 55.94582 -3.38503 134 ft 90 kts 62°
2026-04-25 08:11 55.94874 -3.37616 105 ft 71 kts 60°
2026-04-25 08:11 55.95094 -3.36965 105 ft 52 kts 60°
2026-04-25 08:11 55.95219 -3.36607 104 ft 18 kts 54°
2026-04-25 08:12 55.95259 -3.36450 103 ft 9 kts 99°
2026-04-25 08:12 55.95209 -3.36368 103 ft 9 kts 149°
2026-04-25 08:12 55.95168 -3.36328 104 ft 6 kts 148°
2026-04-25 08:12 55.95145 -3.36272 104 ft 4 kts 110°
2026-04-25 08:13 55.95123 -3.36159 104 ft 8 kts 109°
2026-04-25 08:13 55.95101 -3.36038 104 ft 9 kts 108°
2026-04-25 08:13 55.95075 -3.35930 104 ft 17 kts 114°
2026-04-25 08:14 55.94961 -3.35866 104 ft 4 kts 169°
2026-04-25 08:14 55.94917 -3.35888 103 ft 10 kts 209°
2026-04-25 08:14 55.94871 -3.35934 104 ft 0 kts 209°